Regional Weather Roundup
Issued by NWS

Home | Current Version | Previous Version | Graphics & Text | Print | Product List | Glossary On
Versions: 1 2 3 4 5 6 7 8 9 10 11 12 13 14 15 16 17 18 19 20 21 22 23 24 25 26 27
000
ASUS45 KSLC 212010
RWRUT

UTAH REGIONAL WEATHER ROUNDUP
NATIONAL WEATHER SERVICE SALT LAKE CITY UT
200 PM MDT THU SEP 21 2017

UTZ001>011-023>025-212100-

NORTHERN UTAH

CITY           SKY/WX    TMP DP  RH WIND       PRES   REMARKS
BRIGHAM CITY   CLOUDY    48  40  72 NW14      29.78F
HILL AFB       PTSUNNY   50  40  69 NW15      29.75F
LOGAN          CLOUDY    49  42  77 N14       29.77F
OGDEN          CLOUDY    51  42  71 NW13      29.74F
SALT LAKE CITY PTSUNNY   57  42  57 NW20      29.73F
TOOELE VALLEY  CLOUDY    50  41  71 NW8       29.77F
WENDOVER       LGT RAIN  45  39  79 N3        29.82F
HEBER CITY     MOSUNNY   68  34  28 SW26G32   29.65F
WEST JORDAN    PTSUNNY   54  47  77 NW21G36   29.74F

$$

UTZ011>015-024>027-212100-

CENTRAL/NORTHEAST UTAH

CITY           SKY/WX    TMP DP  RH WIND       PRES   REMARKS
PROVO AIRPORT  MOSUNNY   63  46  54 NW20      29.68F
MOAB/CANYONLAN SUNNY     83  28  13 SW20G33   29.70F
DELTA          MOSUNNY   64  36  34 NW8       29.66F
PRICE          PTSUNNY   71  32  23 S24G32    29.73F
RICHFIELD      MOSUNNY   73  34  23 S25G37    29.68F
ROOSEVELT      SUNNY     79  32  18 S23       29.69F
VERNAL         SUNNY     79  34  19 S23G39    29.68F

$$

UTZ013>016-019>022-027-212100-

SOUTHERN UTAH

CITY           SKY/WX    TMP DP  RH WIND       PRES   REMARKS
BRYCE CANYON   SUNNY     65  31  28 S32G43    29.89F
CEDAR CITY     MOSUNNY   74  34  23 S36G45    29.73F
MILFORD        PTSUNNY   77  35  21 SW35G51   29.66F
ST GEORGE      PTCLDY    84  38  19 SW36      29.63F
HANKSVILLE     SUNNY     81  30  16 S22G31    29.72F
KANAB          MOSUNNY   79  32  18 S25G33    29.80F
BLANDING         N/A     78  24  14 S25G31    29.96F

$$

REGIONAL REPORTS     COLORADO/ARIZONA

CITY           SKY/WX    TMP DP  RH WIND       PRES   REMARKS
CRAIG, CO      SUNNY     78  18  10 S31G48    29.77F
GRAND JUNCTION SUNNY     83  24  11 S22G30    29.74F
RIFLE, CO      SUNNY     82  13   7 S24G33    29.77F
MONTROSE, CO   SUNNY     80  24  12 SW23G33   29.84F
CORTEZ, CO     SUNNY     79  21  11 S17G30    29.94F
PAGE, AZ       SUNNY     83  31  15 S15G25    29.74F
GRAND CANYON   SUNNY     71  26  18 SW28G41   29.95F
KINGMAN, AZ    SUNNY     82  39  21 S32G43    29.78F
FLAGSTAFF, AZ  SUNNY     66  31  27 SW29G40   30.01F

$$

REGIONAL REPORTS    NEVADA/IDAHO/WYOMING

CITY           SKY/WX    TMP DP  RH WIND       PRES   REMARKS
LAS VEGAS, NV  MOSUNNY   82  44  26 SW26G36   29.64F
ELY, NY        SNOW      32  32 100 N9        29.83S VSB 1/4 WCI  24
ELKO, NV       LGT RAIN  39  36  89 NE6       29.82F WCI  35
POCATELLO, ID  NOT AVBL
BURLEY, ID     CLOUDY    45  40  82 CALM      29.82S
FORT BRIDGER,  CLOUDY    63  37  37 MISG      29.76F
EVANSTON, WY   SUNNY     63  36  36 SW22G39   29.71F
ROCK SPRINGS,  MOSUNNY   70  28  21 SW29G39   29.72F
KEMMERER, WY     N/A     55  37  50 W9        29.76F

$$




USA.gov is the U.S. government's official web portal to all federal, state and local government web resources and services.